Cedar Rapids, IA

8:46 PM CST on December 10, 2019 (GMT -0600)
The Eastern Iowa Airport

Weather History for KCID - November, 2019

Change the Weather History Date:

Thursday, November 21, 2019

  Actual Average Record
Temperature  
Mean Temperature 40 °F 34 °F  
Max Temperature 53 °F 43 °F 71 °F (1913)
Min Temperature 26 °F 25 °F 0 °F (1937)
Degree Days  
Heating Degree Days 25 31  
Month to date heating degree days 724 533  
Since 1 July heating degree days 1350 1143  
Cooling Degree Days 0 0  
Month to date cooling degree days 0 0  
Year to date cooling degree days 803 748  
Moisture  
Dew Point 42 °F    
Average Humidity 91    
Maximum Humidity 100    
Minimum Humidity 82    
Precipitation  
Precipitation 0.30 in 0.06 in 0.50 in (1961)
Month to date precipitation 0.54 1.50  
Year to date precipitation 38.24 32.58  
Sea Level Pressure  
Sea Level Pressure 29.81 in    
Wind  
Wind Speed 20 mph (WSW)    
Max Wind Speed 31 mph    
Max Gust Speed 41 mph    
Visibility 7 miles    
Events Rain    
T = Trace of Precipitation, MM = Missing Value Source: NWS Daily Summary

Daily Weather History Graph

Daily Weather History Graph

Search for Another Location

Airport or City:

Astronomy

Nov. 21, 2019 Rise Set
Actual Time 7:03 AM CST 4:41 PM CST
Civil Twilight 6:33 AM CST 5:11 PM CST
Nautical Twilight 5:58 AM CST 5:46 PM CST
Astronomical Twilight 5:25 AM CST 6:19 PM CST
Moon 12:52 AM CST (11/21) 2:17 PM CST (11/21)
Length of Visible Light 10h 38m
Length of Day
9h 38m
Waning Crescent, 29% of the Moon is Illuminated
Nov 21
Waning Crescent
Nov 26
New
Dec 4
First Quarter
Dec 11
Full
Dec 18
Last Quarter

Hourly Weather History & Observations

Time (CST) Temp. Windchill Dew Point Humidity Pressure Visibility Wind Dir Wind Speed Gust Speed Precip Events Conditions
12:28 AM 46.9 °F - 45.0 °F 93% 29.78 in 2.5 mi SSE 18.4 mph 31.1 mph 0.08 in Rain Rain
12:37 AM 46.9 °F - 45.0 °F 93% 29.76 in 4.0 mi SSE 19.6 mph 27.6 mph 0.09 in Rain Light Rain
12:50 AM 46.4 °F 39.0 °F 46.4 °F 100% 29.75 in 2.0 mi SSE 19.6 mph 27.6 mph 0.14 in Rain Heavy Rain
12:52 AM 46.0 °F 38.5 °F 46.0 °F 100% 29.75 in 2.0 mi SSE 19.6 mph 27.6 mph 0.15 in Rain Heavy Rain
12:58 AM 46.0 °F 38.3 °F 46.0 °F 100% 29.73 in 2.0 mi SSE 20.7 mph 27.6 mph 0.01 in Rain Rain
1:12 AM 46.0 °F 38.8 °F 46.0 °F 100% 29.72 in 3.0 mi SSE 18.4 mph 31.1 mph 0.05 in Rain Rain
1:52 AM 46.9 °F - 46.9 °F 100% 29.73 in 3.0 mi South 17.3 mph 27.6 mph 0.08 in Rain Rain
2:06 AM 46.9 °F - 46.9 °F 100% 29.72 in 2.5 mi South 18.4 mph 28.8 mph 0.04 in Rain Rain
2:13 AM 48.0 °F - 46.9 °F 96% 29.72 in 3.0 mi South 16.1 mph 28.8 mph 0.06 in Rain Rain
2:52 AM 48.0 °F - 48.0 °F 100% 29.71 in 8.0 mi South 16.1 mph 29.9 mph 0.07 in   Overcast
3:02 AM 48.9 °F - 48.0 °F 97% 29.69 in 8.0 mi South 16.1 mph - N/A   Overcast
3:05 AM 48.9 °F - 48.0 °F 97% 29.68 in 8.0 mi South 15.0 mph 25.3 mph N/A   Overcast
4:30 AM 51.1 °F - 50.0 °F 96% 29.65 in 10.0 mi South 19.6 mph 27.6 mph N/A   Overcast
4:42 AM 51.1 °F - 50.0 °F 96% 29.64 in 10.0 mi South 16.1 mph 26.5 mph N/A   Overcast
4:52 AM 51.1 °F - 50.0 °F 96% 29.65 in 10.0 mi South 20.7 mph 28.8 mph N/A   Overcast
5:52 AM 52.0 °F - 50.0 °F 93% 29.63 in 10.0 mi South 20.7 mph 29.9 mph N/A   Overcast
6:52 AM 52.0 °F - 51.1 °F 97% 29.62 in 4.0 mi SSW 19.6 mph 29.9 mph N/A   Overcast
7:03 AM 52.0 °F - 51.1 °F 97% 29.62 in 2.0 mi SSW 19.6 mph 28.8 mph 0.00 in Rain Light Rain
7:52 AM 53.1 °F - 53.1 °F 100% 29.63 in 2.5 mi SW 21.9 mph 31.1 mph 0.01 in Rain Light Rain
8:05 AM 53.1 °F - 52.0 °F 96% 29.64 in 5.0 mi West 27.6 mph 36.8 mph 0.00 in   Overcast
8:26 AM 48.9 °F - 48.0 °F 97% 29.67 in 4.0 mi WNW 23.0 mph 38.0 mph 0.00 in   Overcast
8:52 AM 48.0 °F - 46.0 °F 93% 29.71 in 9.0 mi WNW 21.9 mph 35.7 mph 0.00 in   Overcast
9:52 AM 45.0 °F 35.6 °F 42.1 °F 90% 29.77 in 10.0 mi WNW 27.6 mph 40.3 mph N/A   Overcast
10:52 AM 43.0 °F 33.8 °F 39.9 °F 89% 29.80 in 10.0 mi WNW 23.0 mph 34.5 mph N/A   Overcast
11:52 AM 41.0 °F 30.5 °F 37.9 °F 89% 29.83 in 10.0 mi WNW 26.5 mph 39.1 mph N/A   Overcast
12:52 PM 39.9 °F 30.0 °F 37.0 °F 89% 29.86 in 10.0 mi NW 21.9 mph 35.7 mph N/A   Overcast
1:52 PM 39.9 °F 29.7 °F 36.0 °F 86% 29.89 in 10.0 mi NW 23.0 mph 35.7 mph N/A   Overcast
2:52 PM 39.0 °F 28.5 °F 35.1 °F 86% 29.93 in 10.0 mi NW 23.0 mph 36.8 mph N/A   Overcast
3:47 PM 37.4 °F 28.5 °F 33.8 °F 87% 29.96 in 10.0 mi NW 15.0 mph 29.9 mph N/A   Overcast
3:52 PM 37.9 °F 28.2 °F 34.0 °F 86% 29.98 in 10.0 mi NW 18.4 mph 29.9 mph N/A   Overcast
4:52 PM 37.0 °F 27.0 °F 32.0 °F 82% 30.01 in 10.0 mi NW 18.4 mph 24.2 mph N/A   Overcast
5:52 PM 35.1 °F 24.8 °F 32.0 °F 89% 30.05 in 10.0 mi NW 17.3 mph - N/A   Overcast
6:52 PM 34.0 °F 24.2 °F 30.9 °F 89% 30.08 in 10.0 mi NW 15.0 mph 25.3 mph N/A   Overcast
7:52 PM 32.0 °F 20.1 °F 28.9 °F 88% 30.11 in 10.0 mi NW 19.6 mph 27.6 mph N/A   Overcast
9:52 PM 28.9 °F 15.8 °F 24.1 °F 82% 30.14 in 10.0 mi NNW 20.7 mph 29.9 mph N/A   Overcast
10:52 PM 28.0 °F 16.1 °F 24.1 °F 85% 30.16 in 10.0 mi NNW 16.1 mph - N/A   Mostly Cloudy
11:52 PM 26.1 °F 15.6 °F 23.0 °F 88% 30.20 in 10.0 mi NNW 11.5 mph - N/A   Mostly Cloudy